Location: Unspecified
(47.2333°N, 39.7000°E)
Time: 23:32:04
(UTC+00:00)

ISS - Pass Details

Date: 11 July 2022
Orbit: 412 x 420 km, 51.6° (Epoch: 17 August)

Event Time Altitude Azimuth Distance (km) Brightness Sun altitude
Rises 21:17:19 0° 267° (W) 2,352 0.1 -20.7°
Reaches altitude 10° 21:19:28 10° 274° (W) 1,492 -0.9 -20.7°
Maximum altitude 21:22:42 43° 348° (NNW) 594 -2.6 -20.7°
Drops below altitude 10° 21:25:56 10° 62° (ENE) 1,500 -0.6 -20.8°
Sets 21:28:06 0° 70° (ENE) 2,367 0.3 -20.8°
